Voltar ao catálogo

STARLINK-34409

AtivoComunicaçõesVLEO
NORAD 64485·PAYLOAD·🇺🇸 United States

Lançado Jun 23, 2025 de Cape Canaveral Space Force Station

Loading…

Próximas Passagens (próximas 24 horas)

TLE

AtualizadoSource: CelesTrak SupGP

Época: Sep 15, 2026, 02:58 UTC

1 64485C 25133P   26258.12409722  .00046075  00000+0  13602-2 0  2584
2 64485  53.1582 314.4984 0001252  93.0578 331.5935 15.34393342    15

Acompanhe STARLINK-34409 em tempo real com AllMySat

Download on the App Store